Location: Freistadt
(48.5112°N, 14.5013°E)
Time: 05:04:01
(UTC+01:00)

FENGYUN 1C DEB - Visible Passes

Search period start: 07 December 2023 00:00
Search period end: 17 December 2023 00:00
Orbit: 799 x 835 km, 99.4° (Epoch: 05 December)

Date Brightness Start Highest point End Pass type
(mag) Time Alt. Az. Time Alt. Az. Time Alt. Az.
07 Dec ? 05:53:44 10° NE 05:57:33 19° E 06:01:21 10° SE visible
07 Dec ? 17:18:23 10° SE 17:23:33 50° ENE 17:28:48 10° N visible
07 Dec ? 18:59:10 10° SSW 19:03:44 28° W 19:08:20 10° NW visible
08 Dec ? 05:33:26 10° ENE 05:35:39 12° E 05:37:51 10° ESE visible
08 Dec ? 16:57:17 10° SE 17:02:07 35° ENE 17:06:59 10° N visible
08 Dec ? 18:36:54 10° SSW 18:41:58 41° W 18:47:06 10° NNW visible
09 Dec ? 06:49:29 10° NNE 06:54:49 53° ESE 07:00:03 10° S visible
09 Dec ? 16:36:27 10° ESE 16:40:44 25° ENE 16:45:03 10° N visible
09 Dec ? 18:14:56 10° S 18:20:16 62° WSW 18:25:41 10° NNW visible
10 Dec ? 06:28:07 10° NNE 06:33:05 35° E 06:37:59 10° SSE visible
10 Dec ? 17:53:13 10° SSE 17:58:38 90° NE 18:04:07 10° NNW visible
10 Dec ? 19:36:22 10° WSW 19:39:19 15° W 19:42:18 10° NW visible
11 Dec ? 06:06:56 10° NE 06:11:16 24° E 06:15:33 10° SE visible
11 Dec ? 17:31:45 10° SSE 17:37:04 62° ENE 17:42:26 10° N visible
11 Dec ? 19:13:15 10° SW 19:17:25 22° W 19:21:37 10° NW visible
12 Dec ? 05:46:08 10° NE 05:49:22 16° E 05:52:35 10° SE visible
12 Dec ? 17:10:30 10° SE 17:15:33 42° ENE 17:20:39 10° N visible
12 Dec ? 18:50:44 10° SSW 18:55:34 33° W 19:00:28 10° NNW visible
13 Dec ? 07:02:56 10° NNE 07:08:21 67° ESE 07:13:40 10° S visible
13 Dec ? 16:49:29 10° ESE 16:54:05 30° ENE 16:58:45 10° N visible
13 Dec ? 18:28:34 10° S 18:33:48 49° W 18:39:05 10° NNW visible
14 Dec ? 06:41:27 10° NNE 06:46:38 44° E 06:51:43 10° S visible
14 Dec ? 18:06:41 10° S 18:12:05 74° WSW 18:17:33 10° NNW visible
14 Dec ? 19:51:14 10° WSW 19:52:57 11° W 19:54:42 10° WNW visible
15 Dec ? 06:20:07 10° NE 06:24:49 30° E 06:29:27 10° SSE visible
15 Dec ? 17:45:03 10° SSE 17:50:27 76° ENE 17:55:54 10° NNW visible
15 Dec ? 19:27:22 10° SW 19:30:59 18° W 19:34:35 10° NW visible
16 Dec ? 05:59:02 10° NE 06:02:55 20° E 06:06:46 10° SE visible
16 Dec ? 17:23:38 10° SE 17:28:52 52° ENE 17:34:07 10° N visible
16 Dec ? 19:04:32 10° SSW 19:09:03 27° W 19:13:36 10° NW visible
